Syracuse, NY

10:24 AM EDT on June 24, 2017 (GMT -0400)
Syracuse Hancock International

Weather History for KSYR - June, 2013

Change the Weather History Date:

Friday, June 14, 2013

  Actual Average Record
Temperature  
Mean Temperature 63 °F 66 °F  
Max Temperature 73 °F 77 °F 95 °F (1988)
Min Temperature 53 °F 56 °F 43 °F (1946)
Degree Days  
Heating Degree Days 2 2  
Month to date heating degree days 49 42  
Since 1 June heating degree days 49 42  
Since 1 July heating degree days 6135 6632  
Cooling Degree Days 0 3  
Month to date cooling degree days 20 36  
Year to date cooling degree days 72 66  
Since 1 June cooling degree days 20 36  
Growing Degree Days 13 (Base 50)    
Moisture  
Dew Point 55 °F    
Average Humidity 81    
Maximum Humidity 100    
Minimum Humidity 61    
Precipitation  
Precipitation 0.00 in 0.12 in 2.86 in (2002)
Month to date precipitation 4.64 1.54  
Year to date precipitation 18.58 15.47  
Snow  
Snow 0.00 in 0.00 in 0.00 in (2002)
Month to date snowfall 0.0 0.0  
Since 1 June snowfall 0.0 0.0  
Since 1 July snowfall 115.4 123.8  
Snow Depth 0.00 in    
Sea Level Pressure  
Sea Level Pressure 29.83 in    
Wind  
Wind Speed 8 mph (WNW)    
Max Wind Speed 20 mph    
Max Gust Speed 25 mph    
Visibility 8 miles    
Events Fog    
T = Trace of Precipitation, MM = Missing Value Source: NWS Daily Summary

Daily Weather History Graph

Daily Weather History Graph

Search for Another Location

Airport or City:

Trip Planner

Search our weather history database for the weather conditions in past years. The results will help you decide how hot, cold, wet, or windy it might be!

Date:

Astronomy

Jun. 14, 2013 Rise Set
Actual Time 5:24 AM EDT 8:45 PM EDT
Civil Twilight 4:48 AM EDT 9:20 PM EDT
Nautical Twilight 4:02 AM EDT 10:06 PM EDT
Astronomical Twilight 3:05 AM EDT 11:04 PM EDT
Moon 11:04 AM EDT (6/14) No Moon Set
Length of Visible Light 16h 31m
Length of Day
15h 21m
Waxing Crescent, 30% of the Moon is Illuminated
Jun 14
Waxing Crescent
Jun 16
First Quarter
Jun 23
Full
Jun 30
Last Quarter
Jul 8
New

Hourly Weather History & Observations

Time (EDT) Temp. Dew Point Humidity Pressure Visibility Wind Dir Wind Speed Gust Speed Precip Events Conditions
12:54 AM 57.0 °F 54.0 °F 89% 29.74 in 10.0 mi NW 4.6 mph - N/A   Overcast
1:54 AM 55.9 °F 54.0 °F 93% 29.74 in 10.0 mi WNW 3.5 mph - N/A   Overcast
2:54 AM 55.9 °F 53.1 °F 90% 29.75 in 10.0 mi West 4.6 mph - N/A   Overcast
3:54 AM 55.0 °F 53.1 °F 93% 29.76 in 10.0 mi Calm Calm - N/A   Overcast
4:54 AM 53.1 °F 52.0 °F 96% 29.76 in 8.0 mi WSW 4.6 mph - N/A Fog Patches of Fog
5:39 AM 53.6 °F 51.8 °F 94% 29.79 in 6.0 mi West 5.8 mph - N/A   Mostly Cloudy
5:44 AM 53.6 °F 53.6 °F 100% 29.79 in 0.8 mi West 8.1 mph - N/A   Overcast
5:54 AM 54.0 °F 53.1 °F 97% 29.78 in 0.5 mi West 6.9 mph - N/A Fog Fog
6:44 AM 55.4 °F 53.6 °F 94% 29.80 in 1.0 mi West 6.9 mph - N/A   Overcast
6:49 AM 55.4 °F 53.6 °F 94% 29.80 in 3.0 mi West 5.8 mph - N/A   Overcast
6:54 AM 55.0 °F 54.0 °F 96% 29.80 in 3.0 mi WSW 4.6 mph - N/A   Overcast
7:54 AM 55.9 °F 54.0 °F 93% 29.81 in 4.0 mi West 9.2 mph - N/A   Overcast
8:04 AM 55.4 °F 55.4 °F 100% 29.82 in 1.8 mi West 9.2 mph - N/A   Overcast
8:54 AM 57.0 °F 55.0 °F 93% 29.82 in 2.0 mi West 8.1 mph - N/A   Overcast
9:26 AM 57.2 °F 55.4 °F 94% 29.83 in 3.0 mi West 8.1 mph - 0.00 in   Light Drizzle
9:49 AM 60.8 °F 55.4 °F 82% 29.84 in 10.0 mi WNW 8.1 mph - 0.00 in   Overcast
9:54 AM 61.0 °F 55.9 °F 83% 29.83 in 10.0 mi WNW 8.1 mph - 0.00 in   Overcast
10:01 AM 60.8 °F 55.4 °F 82% 29.84 in 10.0 mi WNW 8.1 mph - N/A   Overcast
10:54 AM 63.0 °F 55.9 °F 78% 29.84 in 10.0 mi NW 6.9 mph - N/A   Overcast
11:01 AM 64.4 °F 57.2 °F 77% 29.85 in 10.0 mi NW 9.2 mph - N/A   Mostly Cloudy
11:42 AM 66.2 °F 55.4 °F 68% 29.85 in 10.0 mi WNW 10.4 mph - N/A   Mostly Cloudy
11:54 AM 66.9 °F 55.9 °F 68% 29.85 in 10.0 mi NW 11.5 mph - N/A   Mostly Cloudy
12:54 PM 70.0 °F 57.9 °F 65% 29.86 in 10.0 mi WNW 12.7 mph 18.4 mph N/A   Mostly Cloudy
1:54 PM 71.1 °F 57.0 °F 61% 29.86 in 10.0 mi NW 12.7 mph 24.2 mph N/A   Scattered Clouds
2:54 PM 72.0 °F 57.0 °F 59% 29.86 in 10.0 mi WNW 15.0 mph 24.2 mph N/A   Scattered Clouds
3:54 PM 72.0 °F 57.0 °F 59% 29.87 in 10.0 mi WNW 12.7 mph 20.7 mph N/A   Scattered Clouds
4:54 PM 72.0 °F 57.0 °F 59% 29.87 in 10.0 mi WNW 12.7 mph - N/A   Scattered Clouds
5:54 PM 72.0 °F 57.0 °F 59% 29.88 in 10.0 mi NW 15.0 mph - N/A   Scattered Clouds
6:54 PM 70.0 °F 55.9 °F 61% 29.88 in 10.0 mi WNW 15.0 mph - N/A   Partly Cloudy
7:54 PM 69.1 °F 55.0 °F 61% 29.89 in 10.0 mi WNW 11.5 mph - N/A   Partly Cloudy
8:54 PM 64.9 °F 54.0 °F 68% 29.90 in 10.0 mi West 9.2 mph - N/A   Scattered Clouds
9:54 PM 63.0 °F 54.0 °F 72% 29.92 in 10.0 mi WNW 6.9 mph - N/A   Scattered Clouds
10:54 PM 61.0 °F 53.1 °F 75% 29.92 in 10.0 mi WNW 4.6 mph - N/A   Scattered Clouds
11:54 PM 59.0 °F 52.0 °F 78% 29.93 in 10.0 mi WSW 3.5 mph - N/A   Scattered Clouds